Overview Statistics Trail Chart Weather Telemetry Raw packets
 

This is the latest recevied weather packets stored in our database for station/object KO4DYK. If no packets are shown the sender has not sent any weather packets the latest 10 day(s).

<< 3 4 5 6 7 8 9 >>
Time Temp. Humidity Pressure Rain* Wind** Luminosity Snow
1788633951 40° C 42% 1014.5 hPa 0 mm - 644 W/m² -
1788633650 39.44° C 42% 1014.7 hPa 0 mm - 635 W/m² -
1788633349 38.89° C 43% 1014.4 hPa 0 mm - 617 W/m² -
1788633045 40° C 42% 1015 hPa 0 mm - 636 W/m² -
1788632738 40° C 42% 1014.6 hPa 0 mm - 645 W/m² -
1788632433 40° C 43% 1014.5 hPa 0 mm - 699 W/m² -
1788632128 39.44° C 47% 1014.6 hPa 0 mm - 620 W/m² -
1788631827 37.78° C 49% 1014.7 hPa 0 mm - 651 W/m² -
1788631527 37.78° C 48% 1014.8 hPa 0 mm - 703 W/m² -
1788631223 37.78° C 47% 1014.9 hPa 0 mm - 232 W/m² -
1788630922 39.44° C 44% 1015 hPa 0 mm - 558 W/m² -
1788630618 37.78° C 46% 1014.9 hPa 0 mm - 671 W/m² -
1788630313 36.67° C 49% 1015 hPa 0 mm - 664 W/m² -
1788630008 36.67° C 50% 1014.9 hPa 0 mm - 678 W/m² -
1788629704 36.67° C 50% 1015 hPa 0 mm - 693 W/m² -
1788629399 36.67° C 50% 1015 hPa 0 mm - 672 W/m² -
1788629098 37.22° C 49% 1015 hPa 0 mm - 692 W/m² -
1788628794 37.78° C 48% 1015.1 hPa 0 mm - 671 W/m² -
1788628490 37.78° C 48% 1015.2 hPa 0 mm - 655 W/m² -
1788628186 36.67° C 52% 1015.3 hPa 0 mm - 642 W/m² -
1788627883 37.78° C 50% 1015.3 hPa 0 mm - 604 W/m² -
1788627582 38.89° C 50% 1015.5 hPa 0 mm - 626 W/m² -
1788627277 38.33° C 51% 1015.5 hPa 0 mm - 608 W/m² -
1788626972 37.78° C 50% 1015.7 hPa 0 mm - 583 W/m² -
1788626672 37.22° C 51% 1015.8 hPa 0 mm - 577 W/m² -

* Rain latest hour (hover to see other rain measurements)
** Current wind speed in m/s (hover to see current wind gust speed)